status,avgMeasuredTime,avgSpeed,extID,medianMeasuredTime,TIMESTAMP,vehicleCount,_id,REPORT_ID
OK,91,33,1034,91,2014-08-01T08:00:00,5,20747089,195711
OK,54,56,1034,54,2014-08-01T08:10:00,1,20747911,195711
OK,101,30,1034,101,2014-08-01T08:15:00,1,20748360,195711
OK,93,32,1034,93,2014-08-01T08:20:00,4,20748809,195711
OK,49,62,1034,49,2014-08-01T08:25:00,5,20749258,195711
OK,49,62,1034,49,2014-08-01T08:30:00,3,20749707,195711
OK,120,25,1034,120,2014-08-01T08:40:00,5,20750605,195711
OK,85,35,1034,85,2014-08-01T08:50:00,3,20751503,195711
OK,71,43,1034,71,2014-08-01T09:00:00,2,20752401,195711
OK,68,44,1034,68,2014-08-01T09:05:00,5,20752850,195711
OK,70,43,1034,70,2014-08-01T09:10:00,5,20753299,195711
OK,70,43,1034,70,2014-08-01T09:20:00,7,20754197,195711
OK,82,37,1034,82,2014-08-01T09:25:00,7,20754646,195711
OK,125,24,1034,125,2014-08-01T09:30:00,7,20755095,195711
OK,85,35,1034,85,2014-08-01T09:35:00,5,20755544,195711
OK,82,37,1034,82,2014-08-01T09:40:00,2,20755993,195711
OK,78,39,1034,78,2014-08-01T09:45:00,2,20756442,195711
OK,78,39,1034,78,2014-08-01T09:50:00,4,20756891,195711
OK,62,49,1034,62,2014-08-01T09:55:00,5,20757340,195711
OK,69,44,1034,69,2014-08-01T10:00:00,7,20757789,195711
OK,90,33,1034,90,2014-08-01T10:15:00,4,20759136,195711
OK,123,24,1034,123,2014-08-01T10:20:00,6,20759585,195711
OK,69,44,1034,69,2014-08-01T10:25:00,5,20760034,195711
OK,94,32,1034,94,2014-08-01T10:30:00,5,20760483,195711
OK,61,50,1034,61,2014-08-01T10:40:00,3,20761381,195711
OK,116,26,1034,116,2014-08-01T10:50:00,3,20762279,195711
OK,64,47,1034,64,2014-08-01T11:00:00,5,20763177,195711
OK,71,43,1034,71,2014-08-01T11:20:00,8,20764972,195711
OK,73,41,1034,73,2014-08-01T11:30:00,3,20765870,195711
OK,81,37,1034,81,2014-08-01T11:35:00,5,20766319,195711
OK,103,29,1034,103,2014-08-01T11:40:00,4,20766768,195711
OK,117,26,1034,117,2014-08-01T11:45:00,5,20767217,195711
OK,73,41,1034,73,2014-08-01T11:50:00,5,20767666,195711
OK,69,44,1034,69,2014-08-01T11:55:00,2,20768115,195711
OK,66,46,1034,66,2014-08-01T12:00:00,3,20768564,195711
OK,82,37,1034,82,2014-08-01T12:10:00,4,20769462,195711
OK,99,30,1034,99,2014-08-01T12:20:00,6,20770360,195711
OK,97,31,1034,97,2014-08-01T12:25:00,7,20770809,195711
OK,120,25,1034,120,2014-08-01T12:30:00,3,20771258,195711
OK,116,26,1034,116,2014-08-01T12:35:00,2,20771707,195711
OK,91,33,1034,91,2014-08-01T12:40:00,6,20772156,195711
OK,80,38,1034,80,2014-08-01T12:45:00,7,20772605,195711
OK,70,43,1034,70,2014-08-01T12:50:00,4,20773054,195711
OK,87,35,1034,87,2014-08-01T12:55:00,4,20773503,195711
OK,136,22,1034,136,2014-08-01T13:00:00,1,20773952,195711
OK,67,45,1034,67,2014-08-01T13:05:00,2,20774401,195711
OK,131,23,1034,131,2014-08-01T13:10:00,3,20774850,195711
OK,125,24,1034,125,2014-08-01T13:15:00,9,20775299,195711
OK,120,25,1034,120,2014-08-01T13:20:00,7,20775748,195711
OK,77,39,1034,77,2014-08-01T13:25:00,4,20776197,195711
OK,113,27,1034,113,2014-08-01T13:30:00,7,20776646,195711
OK,117,26,1034,117,2014-08-01T13:35:00,6,20777095,195711
OK,115,26,1034,115,2014-08-01T13:40:00,3,20777544,195711
OK,122,25,1034,122,2014-08-01T13:45:00,0,20777993,195711
OK,110,27,1034,110,2014-08-01T13:50:00,2,20778442,195711
OK,120,25,1034,120,2014-08-01T14:00:00,7,20779340,195711
OK,56,54,1034,56,2014-08-01T14:05:00,2,20779789,195711
OK,56,54,1034,56,2014-08-01T14:10:00,0,20780238,195711
OK,89,34,1034,89,2014-08-01T14:15:00,1,20780687,195711
OK,89,34,1034,89,2014-08-01T14:20:00,1,20781136,195711
OK,89,34,1034,89,2014-08-01T14:25:00,0,20781585,195711
OK,89,34,1034,89,2014-08-01T14:30:00,0,20782034,195711
OK,79,38,1034,79,2014-08-01T14:35:00,1,20782483,195711
OK,100,30,1034,100,2014-08-01T14:40:00,5,20782932,195711
OK,115,26,1034,115,2014-08-01T14:45:00,5,20783381,195711
OK,116,26,1034,116,2014-08-01T14:50:00,4,20783830,195711
OK,60,50,1034,60,2014-08-01T15:00:00,5,20784728,195711
OK,85,35,1034,85,2014-08-01T15:05:00,5,20785177,195711
OK,87,35,1034,87,2014-08-01T15:10:00,4,20785626,195711
OK,72,42,1034,72,2014-08-01T15:15:00,3,20786075,195711
OK,72,42,1034,72,2014-08-01T15:20:00,1,20786524,195711
OK,61,50,1034,61,2014-08-01T15:25:00,2,20786973,195711
OK,61,50,1034,61,2014-08-01T15:30:00,3,20787422,195711
OK,55,55,1034,55,2014-08-01T15:35:00,1,20787871,195711
OK,55,55,1034,55,2014-08-01T15:40:00,0,20788320,195711
OK,66,46,1034,66,2014-08-01T15:45:00,1,20788769,195711
OK,66,46,1034,66,2014-08-01T15:50:00,1,20789218,195711
OK,66,46,1034,66,2014-08-01T15:55:00,0,20789667,195711
OK,66,46,1034,66,2014-08-01T16:00:00,0,20790116,195711
OK,86,35,1034,86,2014-08-01T16:05:00,3,20790565,195711
OK,82,37,1034,82,2014-08-01T16:10:00,6,20791014,195711
OK,71,43,1034,71,2014-08-01T16:15:00,3,20791463,195711
OK,68,44,1034,68,2014-08-01T16:20:00,3,20791912,195711
OK,76,40,1034,76,2014-08-01T16:25:00,4,20792361,195711
OK,91,33,1034,91,2014-08-01T16:30:00,3,20792810,195711
OK,99,30,1034,99,2014-08-01T16:35:00,1,20793259,195711
OK,58,52,1034,58,2014-08-01T16:40:00,1,20793708,195711
OK,66,46,1034,66,2014-08-01T16:45:00,4,20794157,195711
OK,69,44,1034,69,2014-08-01T16:50:00,3,20794606,195711
OK,52,58,1034,52,2014-08-01T16:55:00,1,20795055,195711
OK,52,58,1034,52,2014-08-01T17:00:00,3,20795504,195711
OK,61,50,1034,61,2014-08-01T17:05:00,2,20795953,195711
OK,74,41,1034,74,2014-08-01T17:10:00,2,20796402,195711
OK,74,41,1034,74,2014-08-01T17:15:00,2,20796851,195711
OK,36,84,1034,36,2014-08-01T17:20:00,1,20797300,195711
OK,36,84,1034,36,2014-08-01T17:25:00,0,20797749,195711
OK,95,32,1034,95,2014-08-01T17:30:00,1,20798198,195711
OK,95,32,1034,95,2014-08-01T17:35:00,1,20798647,195711
OK,95,32,1034,95,2014-08-01T17:40:00,0,20799096,195711
OK,86,35,1034,86,2014-08-01T17:45:00,2,20799545,195711
OK,86,35,1034,86,2014-08-01T17:50:00,2,20799994,195711
OK,30,101,1034,30,2014-08-01T17:55:00,1,20800443,195711
OK,30,101,1034,30,2014-08-01T18:00:00,1,20800892,195711
OK,64,47,1034,64,2014-08-01T18:05:00,1,20801341,195711
OK,82,37,1034,82,2014-08-01T18:10:00,2,20801790,195711
OK,94,32,1034,94,2014-08-01T18:15:00,2,20802239,195711
OK,73,41,1034,73,2014-08-01T18:20:00,2,20802688,195711
OK,66,46,1034,66,2014-08-01T18:25:00,2,20803137,195711
OK,81,37,1034,81,2014-08-01T18:30:00,2,20803586,195711
OK,69,44,1034,69,2014-08-01T18:35:00,4,20804035,195711
OK,56,54,1034,56,2014-08-01T18:40:00,2,20804484,195711
OK,80,38,1034,80,2014-08-01T18:45:00,1,20804933,195711
OK,80,38,1034,80,2014-08-01T18:50:00,0,20805382,195711
OK,68,44,1034,68,2014-08-01T18:55:00,1,20805831,195711
OK,68,44,1034,68,2014-08-01T19:00:00,1,20806280,195711
OK,68,44,1034,68,2014-08-01T19:05:00,0,20806729,195711
OK,68,44,1034,68,2014-08-01T19:10:00,0,20807178,195711
OK,107,28,1034,107,2014-08-01T19:15:00,1,20807627,195711
OK,81,37,1034,81,2014-08-01T19:20:00,2,20808076,195711
OK,64,47,1034,64,2014-08-01T19:25:00,2,20808525,195711
OK,73,41,1034,73,2014-08-01T19:30:00,2,20808974,195711
OK,74,41,1034,74,2014-08-01T19:35:00,1,20809423,195711
OK,74,41,1034,74,2014-08-01T19:40:00,0,20809872,195711
OK,74,41,1034,74,2014-08-01T19:45:00,0,20810321,195711
OK,72,42,1034,72,2014-08-01T19:50:00,1,20810770,195711
OK,80,38,1034,80,2014-08-01T19:55:00,2,20811219,195711
OK,88,34,1034,88,2014-08-01T22:00:00,0,20816948,195711
OK,88,34,1034,88,2014-08-02T00:00:00,0,20823387,195711
OK,88,34,1034,88,2014-08-02T00:05:00,0,20823836,195711
OK,88,34,1034,88,2014-08-02T00:10:00,0,20824285,195711
OK,88,34,1034,88,2014-08-02T00:15:00,0,20824734,195711
OK,88,34,1034,88,2014-08-02T00:20:00,0,20825183,195711
OK,88,34,1034,88,2014-08-02T00:25:00,0,20825632,195711
OK,88,34,1034,88,2014-08-02T00:30:00,0,20826081,195711
OK,88,34,1034,88,2014-08-02T00:35:00,0,20826530,195711
OK,88,34,1034,88,2014-08-02T00:40:00,0,20826979,195711
OK,88,34,1034,88,2014-08-02T00:45:00,0,20827428,195711
OK,86,35,1034,86,2014-08-02T00:50:00,1,20827877,195711
OK,86,35,1034,86,2014-08-02T00:55:00,0,20828326,195711
OK,86,35,1034,86,2014-08-02T01:00:00,0,20828775,195711
OK,86,35,1034,86,2014-08-02T01:05:00,0,20829224,195711
OK,86,35,1034,86,2014-08-02T01:10:00,0,20829673,195711
OK,86,35,1034,86,2014-08-02T01:15:00,0,20830122,195711
OK,86,35,1034,86,2014-08-02T01:20:00,0,20830571,195711
OK,86,35,1034,86,2014-08-02T01:25:00,0,20831020,195711
OK,86,35,1034,86,2014-08-02T01:30:00,0,20831469,195711
OK,86,35,1034,86,2014-08-02T01:35:00,0,20831918,195711
OK,86,35,1034,86,2014-08-02T01:40:00,0,20832367,195711
OK,54,56,1034,54,2014-08-02T01:45:00,0,20832816,195711
OK,54,56,1034,54,2014-08-02T01:50:00,0,20833265,195711
OK,54,56,1034,54,2014-08-02T01:55:00,0,20833714,195711
OK,54,56,1034,54,2014-08-02T02:00:00,0,20834163,195711
OK,54,56,1034,54,2014-08-02T02:05:00,0,20834612,195711
OK,54,56,1034,54,2014-08-02T02:10:00,0,20835061,195711
OK,84,36,1034,84,2014-08-02T02:15:00,1,20835510,195711
OK,84,36,1034,84,2014-08-02T02:20:00,0,20835959,195711
OK,84,36,1034,84,2014-08-02T02:25:00,0,20836408,195711
OK,84,36,1034,84,2014-08-02T02:30:00,0,20836857,195711
OK,84,36,1034,84,2014-08-02T02:35:00,0,20837306,195711
OK,84,36,1034,84,2014-08-02T02:40:00,0,20837755,195711
OK,84,36,1034,84,2014-08-02T02:45:00,0,20838204,195711
OK,84,36,1034,84,2014-08-02T02:50:00,0,20838653,195711
OK,84,36,1034,84,2014-08-02T02:55:00,0,20839102,195711
OK,84,36,1034,84,2014-08-02T03:00:00,0,20839551,195711
OK,84,36,1034,84,2014-08-02T03:05:00,0,20840000,195711
OK,84,36,1034,84,2014-08-02T03:10:00,0,20840449,195711
OK,84,36,1034,84,2014-08-02T03:15:00,0,20840898,195711
OK,84,36,1034,84,2014-08-02T03:20:00,0,20841347,195711
OK,84,36,1034,84,2014-08-02T03:25:00,0,20841796,195711
OK,84,36,1034,84,2014-08-02T03:30:00,0,20842245,195711
OK,46,66,1034,46,2014-08-02T03:35:00,1,20842694,195711
OK,46,66,1034,46,2014-08-02T03:40:00,1,20843143,195711
OK,46,66,1034,46,2014-08-02T03:45:00,0,20843592,195711
OK,46,66,1034,46,2014-08-02T03:50:00,0,20844041,195711
OK,38,80,1034,38,2014-08-02T03:55:00,1,20844490,195711
OK,90,33,1034,90,2014-08-02T06:00:00,1,20851944,195711
OK,90,33,1034,90,2014-08-02T06:05:00,0,20852393,195711
OK,36,84,1034,36,2014-08-02T06:10:00,1,20852842,195711
OK,36,84,1034,36,2014-08-02T06:15:00,1,20853291,195711
OK,50,61,1034,50,2014-08-02T06:20:00,1,20853740,195711
OK,50,61,1034,50,2014-08-02T06:25:00,1,20854189,195711
OK,50,61,1034,50,2014-08-02T06:30:00,0,20854638,195711
OK,76,40,1034,76,2014-08-02T06:35:00,1,20855087,195711
OK,76,40,1034,76,2014-08-02T06:40:00,1,20855536,195711
OK,76,40,1034,76,2014-08-02T06:45:00,0,20855985,195711
OK,76,40,1034,76,2014-08-02T06:50:00,0,20856434,195711
OK,76,40,1034,76,2014-08-02T06:55:00,0,20856883,195711
OK,76,40,1034,76,2014-08-02T07:00:00,0,20857332,195711
OK,76,40,1034,76,2014-08-02T07:05:00,0,20857781,195711
OK,76,40,1034,76,2014-08-02T07:10:00,0,20858230,195711
OK,55,55,1034,55,2014-08-02T07:15:00,2,20858679,195711
OK,32,95,1034,32,2014-08-02T07:20:00,3,20859128,195711
OK,47,65,1034,47,2014-08-02T07:25:00,2,20859577,195711
OK,64,47,1034,64,2014-08-02T07:30:00,0,20860026,195711
OK,64,47,1034,64,2014-08-02T07:35:00,0,20860475,195711
OK,54,56,1034,54,2014-08-02T07:40:00,1,20860924,195711
OK,59,51,1034,59,2014-08-02T07:45:00,1,20861373,195711
OK,59,51,1034,59,2014-08-02T07:50:00,0,20861822,195711
OK,59,51,1034,59,2014-08-02T07:55:00,0,20862271,195711
OK,100,30,1034,100,2014-08-02T08:00:00,3,20862720,195711
OK,97,31,1034,97,2014-08-02T08:05:00,4,20863169,195711
OK,71,43,1034,71,2014-08-02T08:10:00,5,20863618,195711
OK,60,50,1034,60,2014-08-02T08:15:00,7,20864067,195711
OK,39,78,1034,39,2014-08-02T08:20:00,3,20864516,195711
OK,80,38,1034,80,2014-08-02T08:25:00,2,20864965,195711
OK,59,51,1034,59,2014-08-02T08:30:00,2,20865414,195711
OK,84,36,1034,84,2014-08-02T08:35:00,4,20865863,195711
OK,82,37,1034,82,2014-08-02T08:40:00,4,20866312,195711
OK,35,87,1034,35,2014-08-02T08:45:00,1,20866761,195711
OK,56,54,1034,56,2014-08-02T08:50:00,2,20867210,195711
OK,68,44,1034,68,2014-08-02T08:55:00,6,20867659,195711
OK,87,35,1034,87,2014-08-02T09:00:00,6,20868108,195711
OK,90,33,1034,90,2014-08-02T09:05:00,3,20868557,195711
OK,85,35,1034,85,2014-08-02T09:10:00,2,20869006,195711
OK,52,58,1034,52,2014-08-02T09:15:00,2,20869455,195711
OK,103,29,1034,103,2014-08-02T09:20:00,1,20869904,195711
OK,119,25,1034,119,2014-08-02T09:25:00,4,20870353,195711
OK,97,31,1034,97,2014-08-02T09:30:00,5,20870802,195711
OK,125,24,1034,125,2014-08-02T09:35:00,4,20871251,195711
OK,97,31,1034,97,2014-08-02T09:40:00,7,20871700,195711
OK,74,41,1034,74,2014-08-02T09:45:00,7,20872149,195711
OK,68,44,1034,68,2014-08-02T09:50:00,9,20872598,195711
OK,64,47,1034,64,2014-08-02T09:55:00,8,20873047,195711
OK,89,34,1034,89,2014-08-02T10:00:00,6,20873496,195711
OK,88,34,1034,88,2014-08-02T10:05:00,3,20873945,195711
OK,57,53,1034,57,2014-08-02T10:10:00,0,20874394,195711
OK,62,49,1034,62,2014-08-02T10:15:00,3,20874843,195711
OK,62,49,1034,62,2014-08-02T10:20:00,3,20875292,195711
OK,93,32,1034,93,2014-08-02T10:25:00,1,20875741,195711
OK,81,37,1034,81,2014-08-02T10:30:00,2,20876190,195711
OK,48,63,1034,48,2014-08-02T10:35:00,2,20876639,195711
OK,109,28,1034,109,2014-08-02T10:40:00,2,20877088,195711
OK,137,22,1034,137,2014-08-02T10:45:00,3,20877537,195711
OK,124,24,1034,124,2014-08-02T10:50:00,5,20877986,195711
OK,104,29,1034,104,2014-08-02T10:55:00,5,20878435,195711
OK,111,27,1034,111,2014-08-02T11:00:00,2,20878884,195711
OK,107,28,1034,107,2014-08-02T11:05:00,5,20879333,195711
OK,77,39,1034,77,2014-08-02T11:10:00,2,20879782,195711
OK,78,39,1034,78,2014-08-02T11:15:00,3,20880231,195711
OK,70,43,1034,70,2014-08-02T11:20:00,4,20880680,195711
OK,64,47,1034,64,2014-08-02T11:25:00,2,20881129,195711
OK,45,67,1034,45,2014-08-02T11:30:00,2,20881578,195711
OK,62,49,1034,62,2014-08-02T11:35:00,2,20882027,195711
OK,146,20,1034,146,2014-08-02T11:40:00,1,20882476,195711
OK,109,28,1034,109,2014-08-02T11:45:00,2,20882925,195711
OK,78,39,1034,78,2014-08-02T11:50:00,4,20883374,195711
OK,93,32,1034,93,2014-08-02T11:55:00,4,20883823,195711
OK,129,23,1034,129,2014-08-02T12:00:00,4,20884272,195711
OK,105,29,1034,105,2014-08-02T12:05:00,5,20884721,195711
OK,85,35,1034,85,2014-08-02T12:10:00,6,20885170,195711
OK,78,39,1034,78,2014-08-02T12:15:00,5,20885619,195711
OK,77,39,1034,77,2014-08-02T12:20:00,2,20886068,195711
OK,67,45,1034,67,2014-08-02T12:25:00,1,20886517,195711
OK,67,45,1034,67,2014-08-02T12:30:00,0,20886966,195711
OK,67,45,1034,67,2014-08-02T12:35:00,0,20887415,195711
OK,103,29,1034,103,2014-08-02T12:40:00,2,20887864,195711
OK,76,40,1034,76,2014-08-02T12:45:00,4,20888313,195711
OK,85,35,1034,85,2014-08-02T12:50:00,3,20888762,195711
OK,75,40,1034,75,2014-08-02T12:55:00,2,20889211,195711
OK,73,41,1034,73,2014-08-02T13:00:00,2,20889660,195711
OK,82,37,1034,82,2014-08-02T13:05:00,1,20890109,195711
OK,72,42,1034,72,2014-08-02T13:10:00,2,20890558,195711
OK,60,50,1034,60,2014-08-02T13:15:00,2,20891007,195711
OK,88,34,1034,88,2014-08-02T13:20:00,1,20891456,195711
OK,88,34,1034,88,2014-08-02T13:25:00,0,20891905,195711
OK,111,27,1034,111,2014-08-02T13:30:00,3,20892354,195711
OK,111,27,1034,111,2014-08-02T13:35:00,3,20892803,195711
OK,109,28,1034,109,2014-08-02T13:40:00,0,20893252,195711
OK,38,80,1034,38,2014-08-02T13:45:00,2,20893701,195711
OK,41,74,1034,41,2014-08-02T13:50:00,4,20894150,195711
OK,79,38,1034,79,2014-08-02T13:55:00,3,20894599,195711
OK,80,38,1034,80,2014-08-02T14:00:00,2,20895048,195711
OK,80,38,1034,80,2014-08-02T14:05:00,2,20895497,195711
OK,109,28,1034,109,2014-08-02T14:10:00,2,20895946,195711
OK,116,26,1034,116,2014-08-02T14:15:00,3,20896395,195711
OK,98,31,1034,98,2014-08-02T14:20:00,4,20896844,195711
OK,123,24,1034,123,2014-08-02T14:25:00,3,20897293,195711
OK,123,24,1034,123,2014-08-02T14:30:00,3,20897742,195711
OK,112,27,1034,112,2014-08-02T14:35:00,4,20898191,195711
OK,117,26,1034,117,2014-08-02T14:40:00,2,20898640,195711
OK,71,43,1034,71,2014-08-02T14:45:00,1,20899089,195711
OK,66,46,1034,66,2014-08-02T14:50:00,2,20899538,195711
OK,60,50,1034,60,2014-08-02T14:55:00,2,20899987,195711
OK,75,40,1034,75,2014-08-02T15:00:00,1,20900436,195711
OK,75,40,1034,75,2014-08-02T15:05:00,1,20900885,195711
OK,75,40,1034,75,2014-08-02T15:10:00,0,20901334,195711
OK,75,40,1034,75,2014-08-02T15:15:00,0,20901783,195711
OK,68,44,1034,68,2014-08-02T15:20:00,2,20902232,195711
OK,86,35,1034,86,2014-08-02T15:25:00,5,20902681,195711
OK,94,32,1034,94,2014-08-02T15:30:00,4,20903130,195711
OK,44,69,1034,44,2014-08-02T15:35:00,2,20903579,195711
OK,73,41,1034,73,2014-08-02T15:40:00,2,20904028,195711
OK,92,33,1034,92,2014-08-02T15:45:00,1,20904477,195711
OK,52,58,1034,52,2014-08-02T15:50:00,4,20904926,195711
OK,54,56,1034,54,2014-08-02T15:55:00,3,20905375,195711
OK,164,18,1034,164,2014-08-02T16:00:00,0,20905824,195711
OK,164,18,1034,164,2014-08-02T16:05:00,0,20906273,195711
OK,134,22,1034,134,2014-08-02T16:10:00,1,20906722,195711
OK,134,22,1034,134,2014-08-02T16:15:00,1,20907171,195711
OK,134,22,1034,134,2014-08-02T16:20:00,0,20907620,195711
OK,134,22,1034,134,2014-08-02T16:25:00,0,20908069,195711
OK,134,22,1034,134,2014-08-02T16:30:00,0,20908518,195711
OK,48,63,1034,48,2014-08-02T16:35:00,2,20908967,195711
OK,44,69,1034,44,2014-08-02T16:40:00,2,20909416,195711
OK,72,42,1034,72,2014-08-02T16:45:00,2,20909865,195711
OK,96,31,1034,96,2014-08-02T16:50:00,5,20910314,195711
OK,77,39,1034,77,2014-08-02T16:55:00,6,20910763,195711
OK,56,54,1034,56,2014-08-02T17:00:00,1,20911212,195711
OK,34,89,1034,34,2014-08-02T17:05:00,1,20911661,195711
OK,34,89,1034,34,2014-08-02T17:10:00,1,20912110,195711
OK,106,28,1034,106,2014-08-02T17:15:00,2,20912559,195711
OK,105,29,1034,105,2014-08-02T17:20:00,3,20913008,195711
OK,88,34,1034,88,2014-08-02T17:25:00,2,20913457,195711
OK,106,28,1034,106,2014-08-02T17:30:00,1,20913906,195711
OK,117,26,1034,117,2014-08-02T17:35:00,3,20914355,195711
OK,61,50,1034,61,2014-08-02T17:40:00,2,20914804,195711
OK,69,44,1034,69,2014-08-02T17:45:00,1,20915253,195711
OK,69,44,1034,69,2014-08-02T17:50:00,0,20915702,195711
OK,220,13,1034,220,2014-08-02T17:55:00,1,20916151,195711
OK,220,13,1034,220,2014-08-02T18:00:00,1,20916600,195711
OK,220,13,1034,220,2014-08-02T18:05:00,0,20917049,195711
OK,61,50,1034,61,2014-08-02T18:10:00,1,20917498,195711
OK,61,50,1034,61,2014-08-02T18:15:00,1,20917947,195711
OK,83,36,1034,83,2014-08-02T18:20:00,1,20918396,195711
OK,98,31,1034,98,2014-08-02T18:25:00,2,20918845,195711
OK,75,40,1034,75,2014-08-02T18:30:00,2,20919294,195711
OK,37,82,1034,37,2014-08-02T18:35:00,3,20919743,195711
OK,34,89,1034,34,2014-08-02T18:40:00,1,20920192,195711
OK,36,84,1034,36,2014-08-02T18:45:00,1,20920641,195711
OK,36,84,1034,36,2014-08-02T18:50:00,1,20921090,195711
OK,36,84,1034,36,2014-08-02T18:55:00,0,20921539,195711
OK,67,45,1034,67,2014-08-02T19:00:00,1,20921988,195711
OK,67,45,1034,67,2014-08-02T19:05:00,0,20922437,195711
OK,86,35,1034,86,2014-08-02T19:10:00,1,20922886,195711
OK,76,40,1034,76,2014-08-02T19:15:00,2,20923335,195711
OK,73,41,1034,73,2014-08-02T19:20:00,2,20923784,195711
OK,72,42,1034,72,2014-08-02T19:25:00,0,20924233,195711
OK,72,42,1034,72,2014-08-02T19:30:00,0,20924682,195711
OK,72,42,1034,72,2014-08-02T19:35:00,0,20925131,195711
OK,63,48,1034,63,2014-08-02T19:40:00,1,20925580,195711
OK,63,48,1034,63,2014-08-02T19:45:00,2,20926029,195711
OK,38,80,1034,38,2014-08-02T19:50:00,3,20926478,195711
OK,36,84,1034,36,2014-08-02T19:55:00,2,20926927,195711
OK,35,87,1034,35,2014-08-02T20:00:00,0,20927376,195711
OK,66,46,1034,66,2014-08-02T20:05:00,1,20927825,195711
OK,66,46,1034,66,2014-08-02T20:10:00,1,20928274,195711
OK,66,46,1034,66,2014-08-02T20:15:00,0,20928723,195711
OK,62,49,1034,62,2014-08-02T20:20:00,2,20929172,195711
OK,82,37,1034,82,2014-08-02T20:25:00,1,20929621,195711
OK,72,42,1034,72,2014-08-02T20:30:00,1,20930070,195711
OK,76,40,1034,76,2014-08-02T20:35:00,2,20930519,195711
OK,39,78,1034,39,2014-08-02T20:40:00,1,20930968,195711
OK,39,78,1034,39,2014-08-02T20:45:00,0,20931417,195711
OK,39,78,1034,39,2014-08-02T20:50:00,0,20931866,195711
OK,59,51,1034,59,2014-08-02T20:55:00,1,20932315,195711
OK,59,51,1034,59,2014-08-02T21:00:00,1,20932764,195711
OK,59,51,1034,59,2014-08-02T21:05:00,0,20933213,195711
OK,59,51,1034,59,2014-08-02T21:10:00,0,20933662,195711
OK,59,51,1034,59,2014-08-02T21:15:00,0,20934111,195711
OK,59,51,1034,59,2014-08-02T21:20:00,0,20934560,195711
OK,59,51,1034,59,2014-08-02T21:25:00,0,20935009,195711
OK,104,29,1034,104,2014-08-02T21:30:00,1,20935458,195711
OK,104,29,1034,104,2014-08-02T21:35:00,1,20935907,195711
OK,104,29,1034,104,2014-08-02T21:40:00,0,20936356,195711
OK,104,29,1034,104,2014-08-02T21:45:00,0,20936805,195711
OK,82,37,1034,82,2014-08-02T21:50:00,1,20937254,195711
OK,82,37,1034,82,2014-08-02T21:55:00,1,20937703,195711
OK,82,37,1034,82,2014-08-02T22:00:00,0,20938152,195711
OK,82,37,1034,82,2014-08-02T22:05:00,0,20938601,195711
OK,82,37,1034,82,2014-08-02T22:10:00,0,20939050,195711
OK,82,37,1034,82,2014-08-02T22:15:00,0,20939499,195711
OK,82,37,1034,82,2014-08-02T22:20:00,0,20939948,195711
OK,82,37,1034,82,2014-08-02T22:25:00,0,20940397,195711
OK,82,37,1034,82,2014-08-02T22:30:00,0,20940846,195711
OK,82,37,1034,82,2014-08-02T22:35:00,0,20941295,195711
OK,82,37,1034,82,2014-08-02T22:40:00,0,20941744,195711
OK,82,37,1034,82,2014-08-02T22:45:00,0,20942193,195711
OK,82,37,1034,82,2014-08-02T22:50:00,0,20942642,195711
OK,34,89,1034,34,2014-08-02T22:55:00,1,20943091,195711
OK,34,89,1034,34,2014-08-02T23:00:00,0,20943540,195711
OK,34,89,1034,34,2014-08-02T23:10:00,0,20943989,195711
OK,34,89,1034,34,2014-08-02T23:15:00,0,20944438,195711
OK,34,89,1034,34,2014-08-02T23:20:00,0,20944887,195711
OK,34,89,1034,34,2014-08-02T23:25:00,0,20945336,195711
OK,34,89,1034,34,2014-08-02T23:30:00,0,20945785,195711
OK,34,89,1034,34,2014-08-02T23:35:00,0,20946234,195711
OK,34,89,1034,34,2014-08-02T23:40:00,0,20946683,195711
OK,34,89,1034,34,2014-08-02T23:45:00,0,20947132,195711
OK,34,89,1034,34,2014-08-02T23:50:00,0,20947581,195711
OK,34,89,1034,34,2014-08-02T23:55:00,0,20948030,195711
OK,34,89,1034,34,2014-08-03T00:00:00,0,20948479,195711
OK,34,89,1034,34,2014-08-03T00:05:00,0,20948928,195711
OK,34,89,1034,34,2014-08-03T00:10:00,0,20949376,195711
OK,34,89,1034,34,2014-08-03T00:15:00,0,20949825,195711
OK,34,89,1034,34,2014-08-03T00:20:00,0,20950274,195711
OK,34,89,1034,34,2014-08-03T00:25:00,0,20950723,195711
OK,34,89,1034,34,2014-08-03T00:30:00,0,20951172,195711
OK,34,89,1034,34,2014-08-03T00:35:00,0,20951621,195711
OK,34,89,1034,34,2014-08-03T00:40:00,0,20952070,195711
OK,79,38,1034,79,2014-08-03T00:45:00,1,20952519,195711
OK,79,38,1034,79,2014-08-03T00:50:00,1,20952968,195711
OK,79,38,1034,79,2014-08-03T00:55:00,0,20953417,195711
OK,79,38,1034,79,2014-08-03T01:00:00,0,20953866,195711
OK,79,38,1034,79,2014-08-03T01:05:00,0,20954315,195711
OK,79,38,1034,79,2014-08-03T01:10:00,0,20954764,195711
OK,79,38,1034,79,2014-08-03T01:15:00,0,20955213,195711
OK,79,38,1034,79,2014-08-03T01:20:00,0,20955662,195711
OK,79,38,1034,79,2014-08-03T01:25:00,0,20956111,195711
OK,79,38,1034,79,2014-08-03T01:30:00,0,20956560,195711
OK,79,38,1034,79,2014-08-03T01:35:00,0,20957009,195711
OK,79,38,1034,79,2014-08-03T01:40:00,0,20957458,195711
OK,79,38,1034,79,2014-08-03T01:45:00,0,20957907,195711
OK,79,38,1034,79,2014-08-03T01:50:00,0,20958356,195711
OK,79,38,1034,79,2014-08-03T01:55:00,0,20958805,195711
OK,79,38,1034,79,2014-08-03T02:00:00,0,20959254,195711
OK,79,38,1034,79,2014-08-03T02:05:00,0,20959703,195711
OK,79,38,1034,79,2014-08-03T02:10:00,0,20960152,195711
OK,79,38,1034,79,2014-08-03T02:15:00,0,20960601,195711
OK,79,38,1034,79,2014-08-03T02:20:00,0,20961050,195711
OK,50,61,1034,50,2014-08-03T02:25:00,1,20961499,195711
OK,50,61,1034,50,2014-08-03T02:30:00,0,20961948,195711
OK,50,61,1034,50,2014-08-03T02:35:00,0,20962397,195711
OK,50,61,1034,50,2014-08-03T02:40:00,0,20962846,195711
OK,50,61,1034,50,2014-08-03T02:45:00,0,20963295,195711